Flag for U.S.A. Weather past 2 weeks in Oklahoma City, Oklahoma, U.S.A.

Now
65 °F

Overcast.


Feels Like: 65 °F
Forecast: 61 / 73 °F
Wind: 3 mph from Southwest

Location: Will Rogers World Airport

Current Time: Apr 17, 2015 at 11:13:53 PM

Latest Report: Apr 17, 2015 at 9:52 PM


Visibility: 10 mi

Pressure: 29.92 "Hg

Humidity: 78%

Dew point: 58 °F

Location of Oklahoma CityLocation

Historic Weather in Oklahoma City — Graph

°F

Oklahoma City temperature yesterday

Maximum temperature yesterday: 77 °F (at 2:52 PM)
Minimum temperature yesterday: 55 °F (at 4:52 AM)
Average temperature yesterday: 66 °F

Past Weeks' High & Low Weather Summary

 TemperatureHumidityPressure
High85 °F (Apr 7, 2:52 PM)93% (Apr 5, 9:52 AM)30.43 "Hg (Apr 5, 9:52 AM)
Low39 °F (Apr 4, 7:52 AM)18% (Apr 4, 1:52 PM)29.62 "Hg (Apr 9, 1:52 AM)
Average63 °F65%29.96 "Hg
* Reported Apr 2 9:52 PM — Apr 17 9:52 PM, Oklahoma City, Weather by CustomWeather, © 2015

Note: Actual official high and low records may vary slightly from our data, if they occured in-between our weather recording intervals... More about our weather records

Advertising

Oklahoma City weather history for previous 24 hours

 ConditionsComfort  
Time TempWeatherWind HumidityBarometerVisibility
9:52 PM
Fri, Apr 17
65 °FOvercast.3 mph78%29.92 "Hg10 mi
8:52 PM65 °FOvercast.5 mph78%29.91 "Hg10 mi
7:52 PM67 °FMostly cloudy.8 mph71%29.92 "Hg10 mi
6:52 PM70 °FMostly cloudy.12 mph64%29.90 "Hg10 mi
5:52 PM72 °FMostly cloudy.7 mph59%29.90 "Hg10 mi
4:52 PM70 °FMostly cloudy.7 mph64%29.92 "Hg10 mi
3:52 PM74 °FMore clouds than sun.7 mph50%29.93 "Hg10 mi
2:52 PM73 °FPartly sunny.7 mph51%29.94 "Hg10 mi
1:52 PM72 °FBroken clouds.7 mph55%29.95 "Hg10 mi
12:52 PM70 °FBroken clouds.6 mph59%29.96 "Hg10 mi
11:52 AM69 °FBroken clouds.8 mph63%29.98 "Hg10 mi
10:52 AM63 °FBroken clouds.9 mph75%29.98 "Hg10 mi
9:52 AM60 °FLight rain. Scattered clouds.14 mph83%29.97 "Hg10 mi
8:52 AM59 °FLight rain. Cloudy.10 mph84%30.01 "Hg10 mi
7:52 AM59 °FPassing clouds.16 mph84%30.00 "Hg10 mi
6:52 AM59 °FLight rain. Mostly cloudy.18 mph75%30.04 "Hg10 mi
6:00 AM61 °FPartly cloudy.22 mph77%30.04 "Hg10 mi
4:52 AM64 °FOvercast.12 mph75%29.96 "Hg10 mi
3:52 AM64 °FMostly cloudy.10 mph81%29.93 "Hg10 mi
2:52 AM66 °FMostly cloudy.6 mph81%29.93 "Hg10 mi
1:52 AM64 °FPartly cloudy.6 mph84%29.91 "Hg10 mi
12:52 AM65 °FPartly cloudy.7 mph81%29.91 "Hg10 mi
11:52 PM
Thu, Apr 16
66 °FPartly cloudy.7 mph81%29.93 "Hg10 mi
Weather by CustomWeather, © 2015

See weather overviewHow to use our weather pages